Home > Weather > Road Town > Past weeks

Flag for British Virgin Islands Weather for the Past 2 Weeks in Road Town, Tortola, British Virgin Islands

Now
77 °F

Overcast.


Feels Like: 79 °F
Forecast: 75 / 79 °F
Wind: 9 mph from East

Location: Cyril E. King International Airport

Current Time: Feb 14, 2016 at 5:19:20 AM

Latest Report: Feb 14, 2016 at 4:53 AM


Visibility: 10 mi

Pressure: 29.95 "Hg

Humidity: 56%

Dew point: 60 °F

Location of Road TownLocation

Historic Weather in Road Town — Graph

°F

Road Town Temperature Yesterday

Maximum temperature yesterday: 80 °F (at 1:53 PM)
Minimum temperature yesterday: 74 °F (at 4:53 AM)
Average temperature yesterday: 77 °F

High & Low Weather Summary for the Past Weeks

 TemperatureHumidityPressure
High84 °F (Feb 12, 10:53 AM)97% (Jan 30, 7:53 AM)30.15 "Hg (Jan 30, 7:53 AM)
Low71 °F (Feb 5, 6:53 AM)53% (Feb 4, 10:53 AM)29.89 "Hg (Feb 4, 3:53 PM)
Average78 °F75%30.03 "Hg
* Reported Jan 30 2:53 AM — Feb 14 2:53 AM, Road Town, Weather by CustomWeather, © 2016

Note: Actual official high and low records may vary slightly from our data, if they occured in-between our weather recording intervals... More about our weather records

Advertising

Road Town Weather History for the Previous 24 Hours

 ConditionsComfort  
Time TempWeatherWind HumidityBarometerVisibility
2:53 AM
Sun, Feb 14
76 °FOvercast.9 mph60%29.96 "Hg10 mi
1:53 AM76 °FOvercast.13 mph69%29.99 "Hg10 mi
12:53 AM75 °FPassing clouds.3 mph74%30.01 "Hg10 mi
11:53 PM
Sat, Feb 13
75 °FPassing clouds.3 mph79%30.03 "Hg10 mi
10:53 PM75 °FClear.No wind74%30.03 "Hg10 mi
9:53 PM75 °FClear.5 mph76%30.03 "Hg10 mi
8:53 PM76 °FPassing clouds.5 mph77%30.03 "Hg10 mi
7:53 PM78 °FPassing clouds.9 mph76%30.01 "Hg10 mi
6:53 PM78 °FClear.9 mph74%30.00 "Hg10 mi
5:53 PM78 °FSunny.9 mph74%29.99 "Hg10 mi
4:53 PM79 °FSunny.12 mph74%29.98 "Hg10 mi
3:53 PM80 °FPartly sunny.9 mph69%29.98 "Hg10 mi
2:53 PM80 °FPartly sunny.12 mph64%29.98 "Hg10 mi
1:53 PM80 °FPartly sunny.10 mph67%30.00 "Hg10 mi
12:53 PM78 °FBroken clouds.10 mph74%30.03 "Hg10 mi
11:53 AM78 °FMostly cloudy.9 mph74%30.05 "Hg10 mi
10:53 AM78 °FOvercast.13 mph71%30.07 "Hg10 mi
9:53 AM78 °FPartly sunny.9 mph66%30.07 "Hg10 mi
8:53 AM77 °FOvercast.6 mph71%30.06 "Hg10 mi
7:53 AM75 °FPassing clouds.8 mph76%30.05 "Hg10 mi
6:53 AM76 °FPassing clouds.9 mph77%30.03 "Hg10 mi
5:53 AM75 °FClear.8 mph82%30.01 "Hg10 mi
Weather by CustomWeather, © 2016

See weather overviewHow to use our weather pages